OAS7252 SKBO-SKCL

Flight info

Callsign OAS7252
Flight time 0h 45m
Altitude 18000
Route KAMIS6A KAMIS W16 GIR R564 OREGA OREGA2C
Aircraft AT76/M-SDFGIRY/S

Departure

Time 2026-04-21 01:53
Airport El Dorado International Airport (SKBO)

Arrival

Time 2026-04-21 02:38
Airport Alfonso Bonilla Aragon International Airport (SKCL)
Time Latitude Longitude Altitude Speed Heading
2026-04-21 01:11 4.69439 -74.13426 8366 ft 0 kts 306°
2026-04-21 01:28 4.69428 -74.13412 8366 ft 4 kts 314°
2026-04-21 01:28 4.69407 -74.13398 8366 ft 4 kts 352°
2026-04-21 01:28 4.69389 -74.13401 8366 ft 1 kts 36°
2026-04-21 01:29 4.69386 -74.13403 8366 ft 0 kts 36°
2026-04-21 01:34 4.69395 -74.13396 8366 ft 7 kts 35°
2026-04-21 01:35 4.69446 -74.13361 8366 ft 6 kts 34°
2026-04-21 01:35 4.69500 -74.13318 8366 ft 9 kts 38°
2026-04-21 01:35 4.69554 -74.13294 8366 ft 10 kts 346°
2026-04-21 01:35 4.69584 -74.13328 8366 ft 3 kts 294°
2026-04-21 01:36 4.69609 -74.13370 8366 ft 11 kts 308°
2026-04-21 01:36 4.69666 -74.13443 8366 ft 14 kts 308°
2026-04-21 01:36 4.69725 -74.13520 8367 ft 14 kts 307°
2026-04-21 01:36 4.69782 -74.13596 8366 ft 14 kts 308°
2026-04-21 01:37 4.69842 -74.13674 8366 ft 15 kts 307°
2026-04-21 01:37 4.69900 -74.13750 8366 ft 13 kts 308°
2026-04-21 01:37 4.69950 -74.13815 8366 ft 11 kts 308°
2026-04-21 01:37 4.69997 -74.13877 8366 ft 12 kts 307°
2026-04-21 01:38 4.70038 -74.13933 8366 ft 9 kts 306°
2026-04-21 01:38 4.70072 -74.13979 8366 ft 8 kts 309°
2026-04-21 01:38 4.70106 -74.14021 8366 ft 7 kts 308°
2026-04-21 01:38 4.70131 -74.14054 8366 ft 7 kts 309°
2026-04-21 01:39 4.70172 -74.14107 8366 ft 13 kts 307°
2026-04-21 01:39 4.70234 -74.14193 8366 ft 18 kts 303°
2026-04-21 01:39 4.70317 -74.14305 8366 ft 22 kts 310°
2026-04-21 01:39 4.70380 -74.14383 8366 ft 10 kts 307°
2026-04-21 01:40 4.70434 -74.14455 8367 ft 16 kts 310°
2026-04-21 01:40 4.70523 -74.14468 8366 ft 13 kts 343°
2026-04-21 01:40 4.70586 -74.14538 8367 ft 13 kts 305°
2026-04-21 01:40 4.70627 -74.14599 8367 ft 7 kts 304°
2026-04-21 01:41 4.70628 -74.14600 8367 ft 7 kts 304°
2026-04-21 01:41 4.70640 -74.14616 8367 ft 4 kts 309°
2026-04-21 01:42 4.70644 -74.14620 8367 ft 2 kts 310°
2026-04-21 01:42 4.70645 -74.14622 8367 ft 0 kts 310°
2026-04-21 01:43 4.70646 -74.14623 8367 ft 2 kts 312°
2026-04-21 01:43 4.70649 -74.14626 8367 ft 4 kts 313°
2026-04-21 01:44 4.70659 -74.14636 8367 ft 7 kts 316°
2026-04-21 01:44 4.70704 -74.14688 8367 ft 13 kts 305°
2026-04-21 01:44 4.70738 -74.14739 8367 ft 11 kts 303°
2026-04-21 01:45 4.70796 -74.14826 8366 ft 22 kts 305°
2026-04-21 01:45 4.70868 -74.14916 8366 ft 5 kts 308°
2026-04-21 01:45 4.70890 -74.14945 8367 ft 5 kts 307°
2026-04-21 01:45 4.70910 -74.14972 8367 ft 5 kts 307°
2026-04-21 01:46 4.70930 -74.14998 8366 ft 5 kts 307°
2026-04-21 01:46 4.70951 -74.15026 8366 ft 7 kts 307°
2026-04-21 01:46 4.71002 -74.15092 8366 ft 17 kts 308°
2026-04-21 01:46 4.71081 -74.15196 8367 ft 20 kts 306°
2026-04-21 01:47 4.71136 -74.15289 8367 ft 10 kts 274°
2026-04-21 01:47 4.71188 -74.15352 8367 ft 16 kts 303°
2026-04-21 01:47 4.71135 -74.15454 8367 ft 22 kts 221°
2026-04-21 01:47 4.71000 -74.15556 8367 ft 25 kts 216°
2026-04-21 01:48 4.70861 -74.15663 8366 ft 23 kts 217°
2026-04-21 01:48 4.70722 -74.15770 8367 ft 23 kts 218°
2026-04-21 01:48 4.70659 -74.15816 8367 ft 4 kts 215°
2026-04-21 01:48 4.70594 -74.15847 8367 ft 16 kts 202°
2026-04-21 01:49 4.70578 -74.15933 8367 ft 17 kts 307°
2026-04-21 01:49 4.70665 -74.16047 8367 ft 24 kts 307°
2026-04-21 01:49 4.70769 -74.16184 8367 ft 24 kts 307°
2026-04-21 01:49 4.70882 -74.16333 8367 ft 29 kts 307°
2026-04-21 01:50 4.70992 -74.16477 8367 ft 23 kts 309°
2026-04-21 01:50 4.71060 -74.16564 8367 ft 16 kts 307°
2026-04-21 01:50 4.71141 -74.16674 8367 ft 17 kts 306°
2026-04-21 01:50 4.71204 -74.16778 8367 ft 13 kts 269°
2026-04-21 01:51 4.71135 -74.16844 8367 ft 17 kts 217°
2026-04-21 01:51 4.71054 -74.16896 8368 ft 10 kts 194°
2026-04-21 01:51 4.71020 -74.16870 8368 ft 0 kts 126°
2026-04-21 01:51 4.71018 -74.16868 8368 ft 5 kts 126°
2026-04-21 01:52 4.70918 -74.16733 8368 ft 39 kts 127°
2026-04-21 01:52 4.70432 -74.16093 8369 ft 75 kts 127°
2026-04-21 01:52 4.70083 -74.15631 8368 ft 92 kts 127°
2026-04-21 01:53 4.69638 -74.15043 8368 ft 122 kts 127°
2026-04-21 01:53 4.69071 -74.14274 8414 ft 148 kts 125°
2026-04-21 01:53 4.68508 -74.13445 8898 ft 136 kts 126°
2026-04-21 01:53 4.67788 -74.12811 9145 ft 147 kts 157°
2026-04-21 01:54 4.66776 -74.12745 9490 ft 152 kts 199°
2026-04-21 01:54 4.65965 -74.13407 9874 ft 156 kts 242°
2026-04-21 01:54 4.65526 -74.14419 10310 ft 157 kts 249°
2026-04-21 01:54 4.65124 -74.15429 10746 ft 155 kts 252°
2026-04-21 01:55 4.64808 -74.16490 10998 ft 169 kts 253°
2026-04-21 01:55 4.64397 -74.17655 11209 ft 185 kts 248°
2026-04-21 01:55 4.63848 -74.18881 11369 ft 204 kts 246°
2026-04-21 01:55 4.63265 -74.20246 11514 ft 221 kts 251°
2026-04-21 01:56 4.62673 -74.21709 11770 ft 231 kts 247°
2026-04-21 01:56 4.62023 -74.23190 12080 ft 237 kts 248°
2026-04-21 01:56 4.61418 -74.24737 12411 ft 241 kts 249°
2026-04-21 01:56 4.60766 -74.26295 12767 ft 243 kts 248°
2026-04-21 01:57 4.60083 -74.27864 13149 ft 246 kts 242°
2026-04-21 01:57 4.59124 -74.29286 13529 ft 246 kts 234°
2026-04-21 01:57 4.58074 -74.30650 13902 ft 248 kts 233°
2026-04-21 01:57 4.57040 -74.32004 14270 ft 248 kts 234°
2026-04-21 01:58 4.56030 -74.33408 14608 ft 249 kts 236°
2026-04-21 01:58 4.55044 -74.34838 14955 ft 249 kts 236°
2026-04-21 01:58 4.54056 -74.36269 15278 ft 249 kts 236°
2026-04-21 01:58 4.53070 -74.37695 15604 ft 249 kts 236°
2026-04-21 01:59 4.52081 -74.39124 15944 ft 249 kts 236°
2026-04-21 01:59 4.51088 -74.40554 16274 ft 249 kts 236°
2026-04-21 01:59 4.50098 -74.41983 16591 ft 250 kts 236°
2026-04-21 01:59 4.49107 -74.43413 16911 ft 250 kts 236°
2026-04-21 02:00 4.48113 -74.44847 17236 ft 250 kts 236°
2026-04-21 02:00 4.47132 -74.46260 17550 ft 250 kts 236°
2026-04-21 02:00 4.46130 -74.47706 17734 ft 256 kts 236°
2026-04-21 02:00 4.45096 -74.49198 17814 ft 263 kts 236°
2026-04-21 02:01 4.44044 -74.50714 17843 ft 266 kts 236°
2026-04-21 02:01 4.42983 -74.52243 17855 ft 269 kts 236°
2026-04-21 02:01 4.41909 -74.53793 17857 ft 272 kts 236°
2026-04-21 02:01 4.40820 -74.55362 17854 ft 274 kts 236°
2026-04-21 02:02 4.39722 -74.56944 17857 ft 277 kts 236°
2026-04-21 02:02 4.38617 -74.58534 17852 ft 279 kts 236°
2026-04-21 02:02 4.37520 -74.60114 17842 ft 280 kts 236°
2026-04-21 02:02 4.36400 -74.61719 17841 ft 282 kts 235°
2026-04-21 02:03 4.35276 -74.63340 17828 ft 283 kts 236°
2026-04-21 02:03 4.34148 -74.64971 17819 ft 284 kts 236°
2026-04-21 02:03 4.33032 -74.66575 17819 ft 284 kts 236°
2026-04-21 02:03 4.31899 -74.68201 17819 ft 285 kts 235°
2026-04-21 02:04 4.30766 -74.69832 17812 ft 285 kts 236°
2026-04-21 02:04 4.29639 -74.71469 17809 ft 285 kts 236°
2026-04-21 02:04 4.28505 -74.73106 17808 ft 285 kts 236°
2026-04-21 02:04 4.27369 -74.74744 17800 ft 286 kts 236°
2026-04-21 02:05 4.26247 -74.76363 17792 ft 286 kts 236°
2026-04-21 02:05 4.25128 -74.78010 17792 ft 285 kts 239°
2026-04-21 02:05 4.24203 -74.79766 17790 ft 285 kts 244°
2026-04-21 02:05 4.23342 -74.81562 17782 ft 286 kts 245°
2026-04-21 02:06 4.22496 -74.83288 17785 ft 282 kts 243°
2026-04-21 02:06 4.21589 -74.85004 17778 ft 277 kts 242°
2026-04-21 02:06 4.20671 -74.86689 17765 ft 273 kts 242°
2026-04-21 02:06 4.19772 -74.88357 17767 ft 270 kts 242°
2026-04-21 02:07 4.18903 -74.89984 17951 ft 261 kts 242°
2026-04-21 02:07 4.18054 -74.91571 18025 ft 257 kts 242°
2026-04-21 02:07 4.17222 -74.93125 18065 ft 255 kts 242°
2026-04-21 02:07 4.16383 -74.94690 18082 ft 254 kts 242°
2026-04-21 02:08 4.15546 -74.96250 18087 ft 254 kts 242°
2026-04-21 02:08 4.14711 -74.97811 18092 ft 253 kts 242°
2026-04-21 02:08 4.13875 -74.99368 18098 ft 254 kts 242°
2026-04-21 02:08 4.13042 -75.00924 18100 ft 254 kts 242°
2026-04-21 02:09 4.12219 -75.02461 18102 ft 254 kts 242°
2026-04-21 02:09 4.11382 -75.04023 18103 ft 254 kts 242°
2026-04-21 02:09 4.10546 -75.05580 18107 ft 254 kts 242°
2026-04-21 02:09 4.09709 -75.07140 18105 ft 254 kts 242°
2026-04-21 02:10 4.08872 -75.08702 18109 ft 254 kts 242°
2026-04-21 02:10 4.08045 -75.10245 18114 ft 254 kts 242°
2026-04-21 02:10 4.07209 -75.11805 18119 ft 254 kts 242°
2026-04-21 02:10 4.06373 -75.13365 18120 ft 254 kts 242°
2026-04-21 02:11 4.05533 -75.14928 18120 ft 254 kts 242°
2026-04-21 02:11 4.04697 -75.16488 18119 ft 254 kts 242°
2026-04-21 02:11 4.03862 -75.18046 18124 ft 254 kts 242°
2026-04-21 02:11 4.03022 -75.19609 18123 ft 254 kts 242°
2026-04-21 02:12 4.02195 -75.21152 18121 ft 254 kts 242°
2026-04-21 02:12 4.01359 -75.22712 18121 ft 254 kts 242°
2026-04-21 02:12 4.00522 -75.24273 18126 ft 254 kts 242°
2026-04-21 02:12 3.99684 -75.25834 18129 ft 254 kts 242°
2026-04-21 02:13 3.98848 -75.27391 18131 ft 254 kts 242°
2026-04-21 02:13 3.98008 -75.28957 18134 ft 254 kts 242°
2026-04-21 02:13 3.97172 -75.30515 18135 ft 254 kts 242°
2026-04-21 02:13 3.96347 -75.32054 18136 ft 254 kts 242°
2026-04-21 02:14 3.95511 -75.33611 18141 ft 254 kts 242°
2026-04-21 02:14 3.94674 -75.35170 18141 ft 253 kts 242°
2026-04-21 02:14 3.93836 -75.36730 18141 ft 253 kts 242°
2026-04-21 02:14 3.93004 -75.38284 18148 ft 253 kts 242°
2026-04-21 02:15 3.92451 -75.39313 18148 ft 253 kts 242°
2026-04-21 02:15 3.91614 -75.40872 18153 ft 253 kts 242°
2026-04-21 02:15 3.90779 -75.42427 18151 ft 253 kts 242°
2026-04-21 02:15 3.89944 -75.43981 18156 ft 253 kts 242°
2026-04-21 02:16 3.89120 -75.45518 18160 ft 254 kts 242°
2026-04-21 02:16 3.88283 -75.47076 18165 ft 254 kts 242°
2026-04-21 02:16 3.87448 -75.48634 18162 ft 254 kts 242°
2026-04-21 02:16 3.86625 -75.50203 18164 ft 254 kts 243°
2026-04-21 02:17 3.85833 -75.51783 18166 ft 254 kts 244°
2026-04-21 02:17 3.85071 -75.53384 18168 ft 254 kts 245°
2026-04-21 02:17 3.84326 -75.54962 18173 ft 253 kts 245°
2026-04-21 02:17 3.83573 -75.56557 18177 ft 253 kts 245°
2026-04-21 02:18 3.82819 -75.58156 18177 ft 254 kts 245°
2026-04-21 02:18 3.82064 -75.59752 18175 ft 254 kts 245°
2026-04-21 02:18 3.81312 -75.61348 18179 ft 253 kts 245°
2026-04-21 02:18 3.80558 -75.62945 18182 ft 253 kts 245°
2026-04-21 02:19 3.79799 -75.64551 18072 ft 258 kts 245°
2026-04-21 02:19 3.79021 -75.66200 17903 ft 264 kts 245°
2026-04-21 02:19 3.78238 -75.67858 17733 ft 269 kts 245°
2026-04-21 02:19 3.77434 -75.69562 17567 ft 272 kts 245°
2026-04-21 02:20 3.76619 -75.71288 17407 ft 276 kts 245°
2026-04-21 02:20 3.75795 -75.73032 17238 ft 278 kts 245°
2026-04-21 02:20 3.74966 -75.74788 17073 ft 279 kts 245°
2026-04-21 02:20 3.74132 -75.76556 16913 ft 281 kts 245°
2026-04-21 02:21 3.73293 -75.78328 16745 ft 282 kts 245°
2026-04-21 02:21 3.72456 -75.80106 16582 ft 283 kts 245°
2026-04-21 02:21 3.71611 -75.81893 16421 ft 284 kts 245°
2026-04-21 02:21 3.70767 -75.83680 16267 ft 285 kts 245°
2026-04-21 02:22 3.69919 -75.85476 16094 ft 285 kts 245°
2026-04-21 02:22 3.69069 -75.87270 15936 ft 286 kts 245°
2026-04-21 02:22 3.68221 -75.89067 15803 ft 284 kts 245°
2026-04-21 02:22 3.67391 -75.90826 15747 ft 281 kts 245°
2026-04-21 02:23 3.66778 -75.92121 15722 ft 278 kts 245°
2026-04-21 02:23 3.65956 -75.93861 15713 ft 275 kts 245°
2026-04-21 02:23 3.65144 -75.95581 15688 ft 272 kts 245°
2026-04-21 02:23 3.64337 -75.97285 15681 ft 269 kts 245°
2026-04-21 02:24 3.63539 -75.98973 15676 ft 266 kts 245°
2026-04-21 02:24 3.62748 -76.00646 15672 ft 265 kts 245°
2026-04-21 02:24 3.61972 -76.02287 15671 ft 263 kts 245°
2026-04-21 02:24 3.61187 -76.03945 15662 ft 263 kts 245°
2026-04-21 02:25 3.60404 -76.05589 15672 ft 261 kts 245°
2026-04-21 02:25 3.59631 -76.07234 15663 ft 260 kts 245°
2026-04-21 02:25 3.58862 -76.08870 15663 ft 259 kts 245°
2026-04-21 02:25 3.58088 -76.10508 15655 ft 259 kts 245°
2026-04-21 02:26 3.57319 -76.12136 15592 ft 261 kts 245°
2026-04-21 02:26 3.56522 -76.13821 15339 ft 270 kts 245°
2026-04-21 02:26 3.55717 -76.15524 15254 ft 271 kts 245°
2026-04-21 02:26 3.54919 -76.17201 15210 ft 270 kts 245°
2026-04-21 02:27 3.54110 -76.18927 15149 ft 270 kts 245°
2026-04-21 02:27 3.53305 -76.20636 14809 ft 280 kts 245°
2026-04-21 02:27 3.52456 -76.22434 14439 ft 289 kts 245°
2026-04-21 02:27 3.51584 -76.24277 14082 ft 295 kts 245°
2026-04-21 02:28 3.50695 -76.26155 13686 ft 300 kts 245°
2026-04-21 02:28 3.49490 -76.27824 13262 ft 305 kts 221°
2026-04-21 02:28 3.47680 -76.28934 12896 ft 306 kts 206°
2026-04-21 02:28 3.45670 -76.29616 12634 ft 304 kts 194°
2026-04-21 02:29 3.43612 -76.30033 12372 ft 300 kts 191°
2026-04-21 02:29 3.41551 -76.30402 12121 ft 300 kts 191°
2026-04-21 02:29 3.39494 -76.30795 11868 ft 300 kts 192°
2026-04-21 02:29 3.37457 -76.31241 11621 ft 298 kts 193°
2026-04-21 02:30 3.35460 -76.31692 11364 ft 290 kts 193°
2026-04-21 02:30 3.33503 -76.32123 11108 ft 286 kts 193°
2026-04-21 02:30 3.31592 -76.32541 10846 ft 283 kts 193°
2026-04-21 02:30 3.29656 -76.32969 10578 ft 280 kts 193°
2026-04-21 02:31 3.27781 -76.33391 10312 ft 278 kts 193°
2026-04-21 02:31 3.26081 -76.33997 10005 ft 247 kts 215°
2026-04-21 02:31 3.25074 -76.35276 9580 ft 230 kts 251°
2026-04-21 02:31 3.25009 -76.36804 9118 ft 216 kts 283°
2026-04-21 02:32 3.25398 -76.38219 8668 ft 208 kts 286°
2026-04-21 02:32 3.25816 -76.39649 8237 ft 226 kts 286°
2026-04-21 02:32 3.26384 -76.41169 7871 ft 237 kts 304°
2026-04-21 02:32 3.27657 -76.42163 7498 ft 229 kts 341°
2026-04-21 02:33 3.29173 -76.42415 7140 ft 216 kts 358°
2026-04-21 02:33 3.30629 -76.42363 6774 ft 210 kts
2026-04-21 02:33 3.32059 -76.42141 6388 ft 206 kts 11°
2026-04-21 02:33 3.33453 -76.41862 5982 ft 203 kts 12°
2026-04-21 02:34 3.34829 -76.41581 5580 ft 200 kts 12°
2026-04-21 02:34 3.36191 -76.41309 5191 ft 198 kts 11°
2026-04-21 02:34 3.37518 -76.41066 4975 ft 188 kts 10°
2026-04-21 02:34 3.38756 -76.40848 4888 ft 174 kts
2026-04-21 02:35 3.39936 -76.40642 4844 ft 175 kts
2026-04-21 02:35 3.41146 -76.40439 4833 ft 175 kts
2026-04-21 02:35 3.42324 -76.40241 4817 ft 171 kts
2026-04-21 02:35 3.43466 -76.40049 4808 ft 159 kts
2026-04-21 02:36 3.44490 -76.39876 4792 ft 142 kts
2026-04-21 02:36 3.45459 -76.39709 4620 ft 142 kts
2026-04-21 02:36 3.46408 -76.39540 4432 ft 135 kts
2026-04-21 02:36 3.47321 -76.39376 4245 ft 132 kts
2026-04-21 02:37 3.48219 -76.39226 4082 ft 130 kts
2026-04-21 02:37 3.49119 -76.39098 3936 ft 130 kts
2026-04-21 02:37 3.50007 -76.38944 3784 ft 130 kts 10°
2026-04-21 02:37 3.50893 -76.38776 3631 ft 130 kts
2026-04-21 02:38 3.51786 -76.38627 3460 ft 130 kts 10°
2026-04-21 02:38 3.52674 -76.38459 3276 ft 129 kts 10°
2026-04-21 02:38 3.53533 -76.38310 3169 ft 117 kts 11°
2026-04-21 02:38 3.54115 -76.38204 3162 ft 34 kts
2026-04-21 02:39 3.54204 -76.38188 3162 ft 3 kts 14°
2026-04-21 02:39 3.54228 -76.38183 3162 ft 4 kts
2026-04-21 02:39 3.54263 -76.38181 3162 ft 5 kts
2026-04-21 02:39 3.54297 -76.38175 3161 ft 3 kts 14°
2026-04-21 02:40 3.54345 -76.38164 3161 ft 12 kts 11°
2026-04-21 02:40 3.54451 -76.38147 3161 ft 18 kts 12°
2026-04-21 02:40 3.54533 -76.38134 3162 ft 17 kts
2026-04-21 02:40 3.54600 -76.38189 3162 ft 12 kts 281°
2026-04-21 02:41 3.54607 -76.38230 3162 ft 6 kts 280°
2026-04-21 02:41 3.54608 -76.38235 3162 ft 0 kts 277°
2026-04-21 02:41 3.54608 -76.38239 3162 ft 2 kts 270°
2026-04-21 02:42 3.54598 -76.38264 3162 ft 6 kts 235°
2026-04-21 02:42 3.54572 -76.38284 3162 ft 8 kts 199°
2026-04-21 02:42 3.54491 -76.38301 3162 ft 13 kts 186°
2026-04-21 02:42 3.54433 -76.38308 3162 ft 3 kts 190°
2026-04-21 02:43 3.54430 -76.38309 3162 ft 1 kts 190°
2026-04-21 02:43 3.54361 -76.38321 3162 ft 17 kts 192°
2026-04-21 02:43 3.54305 -76.38333 3161 ft 3 kts 192°
2026-04-21 02:43 3.54244 -76.38344 3161 ft 5 kts 191°
2026-04-21 02:44 3.54204 -76.38352 3161 ft 3 kts 191°
2026-04-21 02:44 3.54113 -76.38370 3160 ft 22 kts 194°
2026-04-21 02:44 3.54068 -76.38393 3160 ft 0 kts 217°
2026-04-21 02:44 3.54037 -76.38418 3160 ft 13 kts 220°
2026-04-21 02:45 3.53976 -76.38470 3160 ft 7 kts 218°
2026-04-21 02:45 3.53905 -76.38531 3159 ft 11 kts 221°
2026-04-21 02:45 3.53852 -76.38580 3159 ft 10 kts 224°
2026-04-21 02:45 3.53811 -76.38633 3159 ft 10 kts 247°
2026-04-21 02:46 3.53766 -76.38690 3159 ft 0 kts 211°
2026-04-21 02:46 3.53752 -76.38695 3159 ft 5 kts 190°
2026-04-21 02:47 3.53732 -76.38686 3159 ft 4 kts 142°
2026-04-21 02:47 3.53719 -76.38674 3159 ft 2 kts 133°
2026-04-21 02:47 3.53714 -76.38668 3159 ft 0 kts 131°
2026-04-21 02:48 3.53713 -76.38667 3159 ft 2 kts 131°
2026-04-21 02:48 3.53710 -76.38663 3159 ft 0 kts 131°
2026-04-21 02:53 3.53716 -76.38670 3159 ft 0 kts 131°
2026-04-21 02:53 3.53783 -76.38715 3159 ft 0 kts 324°
2026-04-21 02:53 3.53801 -76.38727 3159 ft 0 kts 329°